Weather History for KWWD - March, 2014

Change the Weather History Date:

Friday, March 28, 2014

  Actual Average Record
Temperature  
Mean Temperature 54 °F -  
Max Temperature 60 °F 53 °F 73 °F (2008)
Min Temperature 48 °F 38 °F 30 °F (2011)
Degree Days  
Heating Degree Days 11    
Growing Degree Days 4 (Base 50)    
Moisture  
Dew Point 45 °F    
Average Humidity 67    
Maximum Humidity 77    
Minimum Humidity 59    
Precipitation  
Precipitation 0.00 in - - ()
Sea Level Pressure  
Sea Level Pressure 30.10 in    
Wind  
Wind Speed 14 mph (South)    
Max Wind Speed 20 mph    
Max Gust Speed 28 mph    
Visibility 10 miles    
Events      
Averages and records for this station are not official NWS values.
T = Trace of Precipitation, MM = Missing Value Source: NWS Daily Summary

Daily Weather History Graph

Daily Weather History Graph

Search for Another Location

Airport or City:

Trip Planner

Search our weather history database for the weather conditions in past years. The results will help you decide how hot, cold, wet, or windy it might be!

Date:

Astronomy

Mar. 28, 2014 Rise Set
Actual Time 6:50 AM EDT 7:19 PM EDT
Civil Twilight 6:23 AM EDT 7:46 PM EDT
Nautical Twilight 5:52 AM EDT 8:17 PM EDT
Astronomical Twilight 5:20 AM EDT 8:50 PM EDT
Moon 5:18 AM EDT (3/28) 5:14 PM EDT (3/28)
Length of Visible Light 13h 22m
Length of Day
12h 28m
Waning Crescent, 6% of the Moon is Illuminated
Mar 28
Waning Crescent
Mar 30
New
Apr 7
First Quarter
Apr 15
Full
Apr 22
Last Quarter

Hourly Weather History & Observations

Time (EDT) Temp. Dew Point Humidity Pressure Visibility Wind Dir Wind Speed Gust Speed Precip Events Conditions
12:15 AM - - N/A% - - North - - N/A   Unknown
12:35 AM - - N/A% - - North - - N/A   Unknown
12:55 AM - - N/A% - - North - - N/A   Unknown
1:15 AM - - N/A% - - North - - N/A   Unknown
1:35 AM - - N/A% - - North - - N/A   Unknown
1:55 AM - - N/A% - - North - - N/A   Unknown
2:15 AM - - N/A% - - North - - N/A   Unknown
2:35 AM - - N/A% - - North - - N/A   Unknown
2:55 AM - - N/A% - - North - - N/A   Unknown
3:15 AM - - N/A% - - North - - N/A   Unknown
3:35 AM - - N/A% - - North - - N/A   Unknown
3:55 AM - - N/A% - - North - - N/A   Unknown
4:15 AM - - N/A% - - North - - N/A   Unknown
4:35 AM - - N/A% - - North - - N/A   Unknown
4:55 AM - - N/A% - - North - - N/A   Unknown
5:15 AM - - N/A% - - North - - N/A   Unknown
5:35 AM - - N/A% - - North - - N/A   Unknown
5:55 AM - - N/A% - - North - - N/A   Unknown
6:15 AM - - N/A% - - North - - N/A   Unknown
6:35 AM - - N/A% - - North - - N/A   Unknown
6:55 AM - - N/A% - - North - - N/A   Unknown
7:15 AM - - N/A% - - North - - N/A   Unknown
7:35 AM - - N/A% - - North - - N/A   Unknown
7:55 AM - - N/A% - - North - - N/A   Unknown
8:15 AM - - N/A% - - North - - N/A   Unknown
8:35 AM - - N/A% - - North - - N/A   Unknown
8:55 AM - - N/A% - - North - - N/A   Unknown
9:15 AM 48.2 °F 41.0 °F 76% 30.18 in 10.0 mi South 12.7 mph - N/A   Unknown
9:35 AM - - N/A% - - North - - N/A   Unknown
9:55 AM - - N/A% - - North - - N/A   Unknown
10:15 AM 53.6 °F 42.8 °F 67% 30.16 in 10.0 mi South 17.3 mph - N/A   Unknown
10:35 AM 53.6 °F 42.8 °F 67% 30.16 in 10.0 mi South 12.7 mph 19.6 mph N/A   Clear
10:55 AM 53.6 °F 42.8 °F 67% 30.16 in 10.0 mi South 15.0 mph - N/A   Clear
11:15 AM 53.6 °F 42.8 °F 67% 30.16 in 10.0 mi South 11.5 mph - N/A   Clear
11:35 AM 53.6 °F 42.8 °F 67% 30.16 in 10.0 mi SSW 11.5 mph - N/A   Clear
11:55 AM 55.4 °F 44.6 °F 67% 30.15 in 10.0 mi South 15.0 mph 20.7 mph N/A   Partly Cloudy
12:15 PM 55.4 °F 44.6 °F 67% 30.15 in 10.0 mi SSW 13.8 mph - N/A   Scattered Clouds
12:35 PM 55.4 °F 42.8 °F 63% 30.15 in 10.0 mi SSW 13.8 mph 20.7 mph N/A   Mostly Cloudy
12:55 PM 55.4 °F 42.8 °F 63% 30.15 in 10.0 mi South 16.1 mph - N/A   Overcast
1:15 PM 53.6 °F 42.8 °F 67% 30.13 in 10.0 mi South 12.7 mph 16.1 mph N/A   Overcast
1:35 PM 55.4 °F 42.8 °F 63% 30.12 in 10.0 mi South 16.1 mph - N/A   Overcast
1:55 PM 55.4 °F 44.6 °F 67% 30.11 in 10.0 mi South 12.7 mph - N/A   Overcast
2:15 PM 55.4 °F 44.6 °F 67% 30.09 in 10.0 mi South 15.0 mph 23.0 mph N/A   Overcast
2:35 PM 57.2 °F 46.4 °F 67% 30.07 in 10.0 mi South 17.3 mph 23.0 mph N/A   Overcast
2:55 PM 59.0 °F 44.6 °F 59% 30.07 in 10.0 mi South 16.1 mph 26.5 mph N/A   Overcast
3:15 PM 57.2 °F 44.6 °F 63% 30.07 in 10.0 mi South 16.1 mph 23.0 mph N/A   Mostly Cloudy
3:35 PM 57.2 °F 44.6 °F 63% 30.07 in 10.0 mi South 17.3 mph - N/A   Mostly Cloudy
3:55 PM 57.2 °F 44.6 °F 63% 30.07 in 10.0 mi South 18.4 mph - N/A   Mostly Cloudy
4:15 PM 57.2 °F 44.6 °F 63% 30.06 in 10.0 mi South 16.1 mph 21.9 mph N/A   Scattered Clouds
4:35 PM 59.0 °F 44.6 °F 59% 30.06 in 10.0 mi South 16.1 mph 21.9 mph N/A   Mostly Cloudy
4:55 PM 60.8 °F 46.4 °F 59% 30.06 in 10.0 mi South 19.6 mph 27.6 mph N/A   Overcast
5:15 PM 59.0 °F 44.6 °F 59% 30.06 in 10.0 mi South 16.1 mph 25.3 mph N/A   Overcast
5:35 PM 57.2 °F 44.6 °F 63% 30.06 in 10.0 mi South 15.0 mph 19.6 mph N/A   Overcast
5:55 PM 57.2 °F 44.6 °F 63% 30.06 in 10.0 mi South 15.0 mph 20.7 mph N/A   Overcast
6:15 PM 57.2 °F 44.6 °F 63% 30.07 in 10.0 mi SSW 16.1 mph 20.7 mph N/A   Overcast
6:35 PM 55.4 °F 44.6 °F 67% 30.08 in 10.0 mi SSW 12.7 mph - N/A   Overcast
6:55 PM 55.4 °F 44.6 °F 67% 30.09 in 10.0 mi SSW 12.7 mph 17.3 mph N/A   Overcast
7:15 PM 55.4 °F 44.6 °F 67% 30.09 in 10.0 mi South 13.8 mph - N/A   Overcast
7:35 PM 55.4 °F 44.6 °F 67% 30.09 in 10.0 mi South 12.7 mph 18.4 mph N/A   Overcast
7:55 PM 55.4 °F 44.6 °F 67% 30.09 in 10.0 mi South 12.7 mph 19.6 mph N/A   Overcast
8:15 PM 55.4 °F 46.4 °F 72% 30.09 in 10.0 mi SSW 13.8 mph - N/A   Overcast
8:35 PM 57.2 °F 46.4 °F 67% 30.10 in 10.0 mi South 11.5 mph - N/A   Overcast
8:55 PM 57.2 °F 46.4 °F 67% 30.10 in 10.0 mi South 12.7 mph - N/A   Overcast
9:15 PM 57.2 °F 46.4 °F 67% 30.10 in 10.0 mi South 13.8 mph 18.4 mph N/A   Overcast
9:35 PM 57.2 °F 46.4 °F 67% 30.10 in 10.0 mi South 12.7 mph 18.4 mph N/A   Overcast
9:55 PM 55.4 °F 46.4 °F 72% 30.10 in 10.0 mi South 9.2 mph - N/A   Overcast
10:15 PM 55.4 °F 46.4 °F 72% 30.10 in 10.0 mi South 11.5 mph - N/A   Overcast
10:35 PM 55.4 °F 46.4 °F 72% 30.10 in 10.0 mi SSW 11.5 mph 17.3 mph N/A   Overcast
10:55 PM 55.4 °F 46.4 °F 72% 30.10 in 10.0 mi South 10.4 mph - N/A   Mostly Cloudy
11:15 PM 55.4 °F 46.4 °F 72% 30.10 in 10.0 mi SSW 10.4 mph - N/A   Overcast
11:35 PM 55.4 °F 48.2 °F 77% 30.11 in 10.0 mi South 9.2 mph - N/A   Overcast
11:55 PM 53.6 °F 46.4 °F 77% 30.12 in 10.0 mi South 6.9 mph - N/A   Overcast